TimeAST,TemperatureF,Dew PointF,Humidity,Sea Level PressureIn,VisibilityMPH,Wind Direction,Wind SpeedMPH,Gust SpeedMPH,PrecipitationIn,Events,Conditions,WindDirDegrees,DateUTC
12:00 AM,82.4,62.6,51,29.80,-9999.0,NNW,5.8,-,N/A,,Clear,340,2013-05-05 21:00:00
1:00 AM,82.4,62.6,51,29.80,-9999.0,Calm,Calm,-,N/A,,Clear,0,2013-05-05 22:00:00
2:00 AM,82.4,60.8,48,29.80,-9999.0,NNW,12.7,-,N/A,,Clear,340,2013-05-05 23:00:00
3:00 AM,81,62,43,29.79,7,NNW,10.4,,,,Clear,330,2013-05-06 00:00:00
3:00 AM,80.6,62.6,54,29.77,-9999.0,NNW,10.4,-,N/A,,Clear,330,2013-05-06 00:00:00
3:30 AM,80.6,62.6,54,29.77,-9999.0,NNW,9.2,-,N/A,,Clear,340,2013-05-06 00:30:00
4:00 AM,80.6,62.6,54,29.80,-9999.0,NNW,5.8,-,N/A,,Clear,340,2013-05-06 01:00:00
4:20 AM,89.6,60.8,38,29.80,-9999.0,NNE,12.7,-,N/A,,Clear,30,2013-05-06 01:20:00
4:30 AM,80.6,60.8,51,29.80,-9999.0,WNW,4.6,-,N/A,,Clear,300,2013-05-06 01:30:00
5:00 AM,82.4,60.8,48,29.80,-9999.0,NNW,6.9,-,N/A,,Clear,330,2013-05-06 02:00:00
5:30 AM,82.4,60.8,48,29.80,-9999.0,NW,3.5,-,N/A,,Clear,310,2013-05-06 02:30:00
6:00 AM,82,60,36,29.82,8,WNW,4.6,,,,,300,2013-05-06 03:00:00
6:00 AM,82.4,59.0,45,29.80,-9999.0,WNW,4.6,-,N/A,,Clear,300,2013-05-06 03:00:00
6:30 AM,82.4,62.6,51,29.83,-9999.0,Variable,2.3,-,N/A,,Clear,0,2013-05-06 03:30:00
7:00 AM,82.4,60.8,48,29.83,-9999.0,WNW,3.5,-,N/A,,Clear,290,2013-05-06 04:00:00
7:30 AM,84.2,60.8,45,29.83,-9999.0,NW,5.8,-,N/A,,Clear,310,2013-05-06 04:30:00
8:00 AM,86.0,60.8,43,29.86,-9999.0,NW,6.9,-,N/A,,Clear,320,2013-05-06 05:00:00
8:30 AM,86.0,57.2,37,29.86,-9999.0,NNW,9.2,-,N/A,,Clear,340,2013-05-06 05:30:00
9:00 AM,89.6,55.4,31,29.86,-9999.0,North,10.4,-,N/A,,Clear,350,2013-05-06 06:00:00
9:30 AM,89.6,57.2,33,29.86,-9999.0,North,11.5,-,N/A,,Clear,350,2013-05-06 06:30:00
10:00 AM,89.6,57.2,33,29.86,-9999.0,NNW,12.7,-,N/A,,Clear,340,2013-05-06 07:00:00
10:30 AM,91.4,57.2,31,29.86,-9999.0,NNW,9.2,-,N/A,,Clear,340,2013-05-06 07:30:00
11:00 AM,93.2,55.4,28,29.83,-9999.0,North,10.4,-,N/A,,Clear,360,2013-05-06 08:00:00
11:30 AM,93.2,53.6,26,29.83,-9999.0,North,10.4,-,N/A,,Clear,10,2013-05-06 08:30:00
12:00 PM,93.2,53.6,26,29.83,-9999.0,NNE,10.4,-,N/A,,Clear,20,2013-05-06 09:00:00
12:30 PM,93.2,55.4,28,29.80,-9999.0,NE,10.4,-,N/A,,Clear,40,2013-05-06 09:30:00
1:00 PM,91.4,53.6,28,29.80,-9999.0,NE,11.5,-,N/A,,Clear,40,2013-05-06 10:00:00
1:30 PM,91.4,55.4,29,29.80,-9999.0,NNE,12.7,-,N/A,,Clear,30,2013-05-06 10:30:00
2:00 PM,91.4,57.2,31,29.80,-9999.0,NE,12.7,-,N/A,,Clear,40,2013-05-06 11:00:00
2:30 PM,89.6,59.0,36,29.80,-9999.0,NNE,13.8,-,N/A,,Clear,30,2013-05-06 11:30:00
3:00 PM,90,60,27,29.80,9,NNE,12.7,,,,,30,2013-05-06 12:00:00
3:30 PM,89.6,55.4,31,29.80,-9999.0,NNE,18.4,-,N/A,,Clear,20,2013-05-06 12:30:00
4:00 PM,89.6,57.2,33,29.77,-9999.0,NNE,16.1,-,N/A,,Clear,20,2013-05-06 13:00:00
4:30 PM,87.8,62.6,43,29.77,-9999.0,NNE,17.3,-,N/A,,Clear,20,2013-05-06 13:30:00
5:00 PM,86.0,64.4,48,29.80,-9999.0,NNE,13.8,-,N/A,,Clear,20,2013-05-06 14:00:00
5:30 PM,84.2,66.2,55,29.80,-9999.0,NNE,13.8,-,N/A,,Clear,20,2013-05-06 14:30:00
6:00 PM,84.2,66.2,55,29.80,-9999.0,North,10.4,-,N/A,,Clear,10,2013-05-06 15:00:00
6:30 PM,84.2,66.2,55,29.80,-9999.0,NNE,6.9,-,N/A,,Clear,20,2013-05-06 15:30:00
7:00 PM,82.4,66.2,58,29.80,-9999.0,North,6.9,-,N/A,,Clear,10,2013-05-06 16:00:00
8:00 PM,82.4,64.4,54,29.83,-9999.0,North,5.8,-,N/A,,Clear,10,2013-05-06 17:00:00
8:30 PM,82.4,64.4,54,29.83,-9999.0,North,5.8,-,N/A,,Clear,10,2013-05-06 17:30:00
9:00 PM,82,65,47,29.84,7,NE,3.5,,,,,40,2013-05-06 18:00:00
9:00 PM,82.4,64.4,54,29.83,-9999.0,NE,3.5,-,N/A,,Clear,40,2013-05-06 18:00:00
9:30 PM,82.4,64.4,54,29.83,-9999.0,ENE,3.5,-,N/A,,Clear,60,2013-05-06 18:30:00
10:00 PM,82.4,64.4,54,29.83,-9999.0,Variable,2.3,-,N/A,,Clear,0,2013-05-06 19:00:00
11:00 PM,82.4,64.4,54,29.83,-9999.0,Calm,Calm,-,N/A,,Clear,0,2013-05-06 20:00:00
11:30 PM,80.6,64.4,58,29.80,-9999.0,Calm,Calm,-,N/A,,Clear,0,2013-05-06 20:30:00